| time (UTC) | temp F | wind direction | speed MPH | gust MPH | rain 1hr in | rain 24hr in | rain mn in | humidity % | barometer mb |
| 20260504034705 | 61 | 349 | 0.0 | 0.0 | 0.00 | 0.00 | 0.00 | 90 | 1012.7 |
| 20260504034204 | 61 | 350 | 0.0 | 0.0 | 0.00 | 0.00 | 0.00 | 89 | 1012.8 |
| 20260504033704 | 61 | 350 | 0.0 | 0.0 | 0.00 | 0.00 | 0.00 | 89 | 1012.8 |
| 20260504033205 | 61 | 350 | 0.0 | 0.0 | 0.00 | 0.00 | 0.00 | 89 | 1012.9 |
| 20260504031705 | 62 | 349 | 0.0 | 0.0 | 0.00 | 0.00 | 0.00 | 89 | 1013.1 |
| 20260504031205 | 62 | 350 | 0.0 | 0.0 | 0.00 | 0.00 | 0.00 | 88 | 1013.2 |
| 20260504030705 | 62 | 350 | 0.0 | 0.0 | 0.00 | 0.00 | 0.00 | 88 | 1013.2 |
| 20260504030204 | 62 | 349 | 0.0 | 0.0 | 0.00 | 0.00 | 0.00 | 88 | 1013.3 |
| 20260504024705 | 62 | 293 | 0.0 | 0.0 | 0.00 | 0.00 | 0.00 | 88 | 1013.4 |
| 20260504023705 | 62 | 277 | 0.0 | 0.0 | 0.00 | 0.00 | 0.00 | 87 | 1013.4 |
| 20260504023205 | 62 | 277 | 0.0 | 0.0 | 0.00 | 0.00 | 0.00 | 87 | 1013.3 |
| 20260504020705 | 62 | 277 | 0.0 | 0.0 | 0.00 | 0.00 | 0.00 | 87 | 1013.3 |
| 20260504020204 | 62 | 277 | 0.0 | 0.0 | 0.00 | 0.00 | 0.00 | 87 | 1013.3 |
| 20260504014705 | 62 | 276 | 0.0 | 0.0 | 0.00 | 0.00 | 0.00 | 88 | 1013.3 |
| 20260504014205 | 62 | 276 | 0.0 | 0.0 | 0.00 | 0.00 | 0.00 | 88 | 1013.4 |
| 20260504013704 | 62 | 276 | 0.0 | 0.0 | 0.00 | 0.00 | 0.00 | 88 | 1013.4 |
| 20260504013205 | 62 | 273 | 0.0 | 3.0 | 0.00 | 0.00 | 0.00 | 89 | 1013.3 |
| 20260504011704 | 62 | 268 | 1.0 | 2.0 | 0.00 | 0.00 | 0.00 | 89 | 1013.3 |
| 20260504011204 | 62 | 267 | 0.0 | 3.0 | 0.00 | 0.00 | 0.00 | 89 | 1013.3 |
| 20260504010704 | 62 | 260 | 0.0 | 3.0 | 0.00 | 0.00 | 0.00 | 89 | 1013.3 |
| 20260504010205 | 62 | 245 | 2.0 | 3.0 | 0.00 | 0.00 | 0.00 | 89 | 1013.3 |
| 20260504004704 | 62 | 304 | 1.0 | 3.0 | 0.00 | 0.00 | 0.00 | 90 | 1013.2 |
| 20260504004205 | 62 | 284 | 0.0 | 0.0 | 0.00 | 0.00 | 0.00 | 90 | 1013.2 |
| 20260504003705 | 62 | 283 | 0.0 | 0.0 | 0.00 | 0.00 | 0.00 | 90 | 1013.3 |
| 20260504003205 | 62 | 281 | 0.0 | 0.0 | 0.00 | 0.00 | 0.00 | 90 | 1013.3 |
| 20260504001704 | 62 | 280 | 0.0 | 0.0 | 0.00 | 0.00 | 0.00 | 90 | 1013.4 |
| 20260504000705 | 62 | 280 | 0.0 | 0.0 | 0.00 | 0.00 | 0.00 | 90 | 1013.6 |
| 20260504000206 | 62 | 282 | 0.0 | 2.0 | 0.00 | 0.00 | 0.00 | 89 | 1013.6 |
| 20260503234205 | 62 | 271 | 1.0 | 3.0 | 0.00 | 0.00 | 0.00 | 89 | 1013.9 |
| 20260503233705 | 62 | 268 | 1.0 | 2.0 | 0.00 | 0.00 | 0.00 | 89 | 1014.0 |
| 20260503231704 | 62 | 267 | 2.0 | 3.0 | 0.00 | 0.00 | 0.00 | 89 | 1014.0 |
| 20260503230705 | 62 | 263 | 1.0 | 3.0 | 0.00 | 0.00 | 0.00 | 89 | 1014.1 |
| 20260503230205 | 62 | 263 | 1.0 | 3.0 | 0.00 | 0.00 | 0.00 | 89 | 1014.1 |
| 20260503224704 | 62 | 242 | 0.0 | 3.0 | 0.00 | 0.00 | 0.00 | 89 | 1014.1 |
| 20260503224205 | 62 | 241 | 2.0 | 3.0 | 0.00 | 0.00 | 0.00 | 89 | 1014.1 |
| 20260503223704 | 62 | 240 | 2.0 | 5.0 | 0.00 | 0.00 | 0.00 | 89 | 1014.2 |
| 20260503223204 | 62 | 298 | 2.0 | 5.0 | 0.00 | 0.00 | 0.00 | 89 | 1014.2 |
| 20260503221705 | 62 | 297 | 2.0 | 3.0 | 0.00 | 0.00 | 0.00 | 88 | 1014.2 |
| 20260503221205 | 62 | 284 | 3.0 | 6.0 | 0.00 | 0.00 | 0.00 | 87 | 1014.2 |
| 20260503220704 | 63 | 234 | 0.0 | 0.0 | 0.00 | 0.00 | 0.00 | 87 | 1014.2 |
| 20260503220204 | 63 | 227 | 0.0 | 0.0 | 0.00 | 0.00 | 0.00 | 86 | 1014.0 |
| 20260503214705 | 62 | 140 | 0.0 | 0.0 | 0.00 | 0.00 | 0.00 | 84 | 1014.1 |
| 20260503214204 | 63 | 140 | 0.0 | 0.0 | 0.00 | 0.00 | 0.00 | 85 | 1014.0 |
| 20260503213204 | 63 | 140 | 0.0 | 1.0 | 0.00 | 0.00 | 0.00 | 85 | 1014.1 |
| 20260503211704 | 63 | 5 | 0.0 | 0.0 | 0.00 | 0.00 | 0.00 | 84 | 1014.5 |
| 20260503211205 | 63 | 8 | 0.0 | 0.0 | 0.00 | 0.00 | 0.00 | 83 | 1014.4 |
| 20260503210705 | 63 | 35 | 0.0 | 0.0 | 0.00 | 0.00 | 0.00 | 82 | 1014.3 |
| 20260503204205 | 64 | 355 | 0.0 | 0.0 | 0.00 | 0.00 | 0.00 | 81 | 1014.2 |
| 20260503203705 | 64 | 355 | 0.0 | 0.0 | 0.00 | 0.00 | 0.00 | 81 | 1014.1 |
| 20260503203204 | 64 | 355 | 0.0 | 0.0 | 0.00 | 0.00 | 0.00 | 81 | 1014.0 |
| 20260503201204 | 64 | 355 | 0.0 | 2.0 | 0.00 | 0.00 | 0.00 | 82 | 1013.6 |
| 20260503200704 | 64 | 349 | 0.0 | 3.0 | 0.00 | 0.00 | 0.00 | 81 | 1013.5 |
| 20260503200205 | 64 | 339 | 2.0 | 5.0 | 0.00 | 0.00 | 0.00 | 81 | 1013.3 |
| 20260503194706 | 64 | 170 | 2.0 | 5.0 | 0.00 | 0.00 | 0.00 | 81 | 1013.2 |
| 20260503193704 | 64 | 227 | 0.0 | 3.0 | 0.00 | 0.00 | 0.00 | 80 | 1013.1 |
| 20260503193204 | 64 | 91 | 0.0 | 0.0 | 0.00 | 0.00 | 0.00 | 80 | 1012.9 |
| 20260503191704 | 64 | 89 | 0.0 | 0.0 | 0.00 | 0.00 | 0.00 | 79 | 1012.7 |
| 20260503190704 | 64 | 99 | 0.0 | 0.0 | 0.00 | 0.00 | 0.00 | 79 | 1012.7 |
| 20260503190204 | 64 | 99 | 0.0 | 3.0 | 0.00 | 0.00 | 0.00 | 79 | 1012.7 |
| 20260503184704 | 65 | 68 | 1.0 | 3.0 | 0.00 | 0.00 | 0.00 | 79 | 1012.6 |
| 20260503184204 | 65 | 23 | 1.0 | 3.0 | 0.00 | 0.00 | 0.00 | 79 | 1012.7 |
| 20260503183705 | 65 | 61 | 2.0 | 3.0 | 0.00 | 0.00 | 0.00 | 78 | 1012.9 |
| 20260503183204 | 65 | 355 | 0.0 | 3.0 | 0.00 | 0.00 | 0.00 | 78 | 1013.1 |
| 20260503181704 | 65 | 92 | 0.0 | 3.0 | 0.00 | 0.00 | 0.00 | 79 | 1012.9 |
| 20260503181205 | 65 | 119 | 2.0 | 6.0 | 0.00 | 0.00 | 0.00 | 78 | 1012.7 |
| 20260503180705 | 65 | 98 | 1.0 | 5.0 | 0.00 | 0.00 | 0.00 | 78 | 1012.7 |
| 20260503180204 | 65 | 105 | 2.0 | 3.0 | 0.00 | 0.00 | 0.00 | 78 | 1012.6 |
| 20260503174704 | 66 | 102 | 2.0 | 8.0 | 0.00 | 0.00 | 0.00 | 77 | 1012.5 |
| 20260503174204 | 66 | 87 | 2.0 | 7.0 | 0.00 | 0.00 | 0.00 | 77 | 1012.4 |
| 20260503173704 | 66 | 118 | 1.0 | 3.0 | 0.00 | 0.00 | 0.00 | 77 | 1012.3 |
| 20260503173204 | 66 | 74 | 1.0 | 6.0 | 0.00 | 0.00 | 0.00 | 77 | 1012.2 |
| 20260503171704 | 66 | 101 | 2.0 | 7.0 | 0.00 | 0.00 | 0.00 | 76 | 1012.5 |
| 20260503171205 | 66 | 111 | 2.0 | 7.0 | 0.00 | 0.00 | 0.00 | 75 | 1012.5 |
| 20260503170704 | 67 | 78 | 1.0 | 3.0 | 0.00 | 0.00 | 0.00 | 75 | 1012.5 |
| 20260503160204 | 68 | 108 | 1.0 | 3.0 | 0.00 | 0.00 | 0.00 | 75 | 1012.2 |